Regional Weather Roundup
Issued by NWS

Home | Current Version | Previous Version | Graphics & Text | Print | Product List | Glossary Off
Versions: 1 2 3 4 5 6 7 8 9 10 11 12 13 14 15 16 17 18 19 20 21 22 23 24 25 26 27 28 29 30 31 32 33 34 35 36 37 38 39 40 41 42 43 44 45 46 47 48 49 50

887
ASUS43 KMPX 251510
RWRMN
WEATHER ROUNDUP FOR MINNESOTA
NATIONAL WEATHER SERVICE TWIN CITIES/CHANHASSEN MN
900 AM CST SAT FEB 25 2017


NOTE: "FAIR" INDICATES FEW OR NO CLOUDS BELOW 12,000 FEET WITH NO
SIGNIFICANT WEATHER AND/OR OBSTRUCTIONS TO VISIBILITY. N/A MEANS
CURRENT SKY AND/OR WEATHER CONDITIONS ARE NOT AVAILABLE.

MNZ060>063-068>070-251600-
   Twin Cities Metro

CITY           SKY/WX    TMP DP  RH WIND       PRES   REMARKS
TWIN CITIES    SUNNY     18   3  52 NW20      29.96R WCI   2
ST PAUL        SUNNY     18   4  54 NW17G24   29.96R WCI   3
CRYSTAL        SUNNY     18   2  49 NW18G25   29.95R WCI   2
BLAINE         SUNNY     18   5  57 NW17      29.94R WCI   2
LAKEVILLE      SUNNY     16   7  67 NW16G24   29.94S WCI   0
EDEN PRAIRIE   SUNNY     19   3  49 NW15G23   29.95R WCI   5
SOUTH ST PAUL  SUNNY     19   3  51 NW14G23   29.95R WCI   5
LAKE ELMO      FAIR      19   5  53 NW12G21   29.94R WCI   7
$$
MNZ001>005-007-008-013>017-022>024-027-028-251600-
   Northwest Minnesota

CITY           SKY/WX    TMP DP  RH WIND       PRES   REMARKS
BEMIDJI        CLOUDY    10   5  79 SW3       29.87F
HALLOCK        FLURRIES  19  18  93 SW7       29.85F WCI  10
ROSEAU         LGT SNOW  14   9  79 S6        29.85F VSB 1   WCI   5
WARROAD        LGT SNOW  12   9  85 CALM      29.86F
THIEF RVR FALL SUNNY     18  13  80 SW14      29.86F WCI   4
CROOKSTON      CLOUDY    21  18  86 SW14      29.89F WCI   8
FOSSTON        CLOUDY    16  10  79 S13       29.88F WCI   2
DETROIT LAKES  SUNNY     19  14  79 SW7       29.91F WCI  10
MOORHEAD       MOSUNNY   21  16  79 S12       29.94F WCI   9
PARK RAPIDS    FLURRIES  14   5  67 W6        29.89F WCI   5
MAHNOMEN       FLURRIES  18  12  79 SW13      29.89F WCI   4
$$
MNZ006-009>011-018-025>026-251600-
   North Central Minnesota

CITY           SKY/WX    TMP DP  RH WIND       PRES   REMARKS
BAUDETTE       CLOUDY     8   1  73 CALM      29.85F
FLAG ISLAND    CLOUDY     7   1  78 CALM      29.84F
INTL FALLS     SUNNY      7  -2  66 W6        29.84F WCI  -3
WASKISH        CLOUDY    12   7  79 W6        29.87F WCI   3
BIG FORK       SUNNY     10   0  61 NW5       29.85F WCI   2
LONGVILLE        N/A     12   3  67 NW6       29.89F WCI   3
GRAND RAPIDS   SUNNY     11   2  67 NW10      29.89S WCI  -3
CRANE LAKE     SUNNY      7   1  78 NW3       29.86S
ORR            SUNNY      5  -2  72 NW8       29.81S WCI  -8
COOK           SUNNY      7   0  72 NW6       29.83F WCI  -3
WALKER         CLOUDY    11   3  70 W8        29.88F WCI   0
$$
MNZ012-019>021-037-251600-
   Northeast Minnesota

CITY           SKY/WX    TMP DP  RH WIND       PRES   REMARKS
DULUTH         MOSUNNY    9   3  77 NW20G31   29.80F WCI -10
ELY            MOSUNNY    7   1  78 NW6       29.80S WCI  -3
HIBBING        SUNNY      6  -1  73 NW12      29.84S WCI  -9
EVELETH        SUNNY     10  -1  63 NW6       29.84R WCI   0
DULUTH HARBOR  SUNNY     14   5  67 NW9G16    29.89F WCI   2
TWO HARBORS    SUNNY     14   5  67 NW9G20    29.77S WCI   2
SILVER BAY     SUNNY     12   5  73 NW14G23   29.74S WCI  -3
GRAND MARAIS     N/A     16   5  62 NW24G46   29.66F WCI  -2
G MARAIS ARPRT LGT SNOW   9   0  66 NW18G28   29.65F WCI -10
$$
MNZ029>031-032-039>041-046>048-054>057-064-251600-
   West Central Minnesota

CITY           SKY/WX    TMP DP  RH WIND       PRES   REMARKS
FERGUS FALLS   CLOUDY    19  12  73 SW7       29.99F WCI  10
WHEATON        CLOUDY    19  12  73 S5        29.99F WCI  13
MORRIS         CLOUDY    19  12  73 W6        29.97F WCI  11
ALEXANDRIA     PTSUNNY   18   9  68 W8        29.94F WCI   8
ELBOW LAKE     CLOUDY    18  13  81 SW7       29.96F WCI   8
WADENA         FLURRIES  14   7  73 W6        29.91F WCI   5
GLENWOOD       CLOUDY    18  10  73 W5        29.95F WCI  11
APPLETON       PTSUNNY   21  12  68 W7        29.99F WCI  13
BENSON         PTSUNNY   23  10  58 NW3       30.00F
ORTONVILLE     CLOUDY    19  14  79 CALM      29.98F
MADISON        CLOUDY    25  18  74 W5        30.00F WCI  19
WILLMAR        FAIR      19  12  73 W10       30.00R WCI   8
$$
MNZ033>034-036-042>043-049>051-058-059-251600-
   Central Minnesota

CITY           SKY/WX    TMP DP  RH WIND       PRES   REMARKS
ST CLOUD       SUNNY     18   5  57 NW9       29.95S WCI   7
SAUK CENTRE    FAIR      17   7  65 W7        29.95S WCI   7
PAYNESVILLE    SUNNY     19   9  65 NW10      29.97S WCI   7
AITKIN         SUNNY     16   1  53 NW6       29.89S WCI   7
PINE RIVER     SUNNY     12   5  73 NW6       29.95R WCI   3
BRAINERD       SUNNY     13   3  64 NW10      29.92S WCI   0
STAPLES        CLOUDY    14   7  73 W7        29.92F WCI   4
LONG PRAIRIE   CLOUDY    18   7  62 W7        29.94F WCI   8
LITTLE FALLS   SUNNY     18   5  57 NW8       29.95S WCI   7
LITCHFIELD     SUNNY     19   9  63 NW9G16    29.97S WCI   9
BUFFALO        SUNNY     19   4  54 NW13G18   29.97S WCI   6
MAPLE LAKE     SUNNY     20   9  63 NW9       29.97S WCI   9
HUTCHINSON     SUNNY     20  10  65 W12       29.98S WCI   8
$$
MNZ037-044-045-052-053-251600-
   East Central Minnesota

CITY           SKY/WX    TMP DP  RH WIND       PRES   REMARKS
PRINCETON      SUNNY     18   5  57 NW12      29.94R WCI   5
MORA           SUNNY     16   5  62 NW15      29.93R WCI   1
CAMBRIDGE      SUNNY     18   5  57 NW10G18   29.92R WCI   6
RUSH CITY      SUNNY     16   1  53 NW12      29.92S WCI   3
MOOSE LAKE     SUNNY     12   1  62 NW9       29.88S WCI   0
HINCKLEY       FAIR      16   3  57 NW9       29.91S WCI   4
CLOQUET        SUNNY     10   1  67 W14G21    29.84F WCI  -5
MCGREGOR       SUNNY     12   3  67 NW12      29.89S WCI  -2
$$
MNZ071>073-080-081-089-090-097-098-251600-
   Southwest Minnesota

CITY           SKY/WX    TMP DP  RH WIND       PRES   REMARKS
MONTEVIDEO     SUNNY     23  16  74 NW5       30.02S WCI  17
GRANITE FALLS  SUNNY     22  14  70 W7        30.02F WCI  14
CANBY          MOSUNNY   24  18  77 CALM      30.01F
MARSHALL       SUNNY     22  13  68 W9        30.01S WCI  12
REDWOOD FALLS  SUNNY     21  10  62 NW8       30.01S WCI  11
OLIVIA         SUNNY     21  12  68 NW10      29.99S WCI  10
PIPESTONE      SUNNY     19  12  73 W8        29.99S WCI   9
WINDOM         SUNNY     19  10  68 W9        30.00F WCI   9
WORTHINGTON    SUNNY     18  12  77 SW7       30.01S WCI   9
JACKSON        SUNNY     18   9  68 NW12      30.00F WCI   5
TRACY          SUNNY     22  12  66 NW6       30.01S WCI  14
SLAYTON        SUNNY     19  13  79 W8        30.00S WCI   9
$$
MNZ065>067-074>077-082>085-091>093-251600-
   South Central Minnesota

CITY           SKY/WX    TMP DP  RH WIND       PRES   REMARKS
MANKATO          N/A     19   9  65 NW17      29.99R WCI   4
NEW ULM        SUNNY     19  10  68 NW14      30.00S WCI   6
ST JAMES       SUNNY     18  12  79 W14       30.02S WCI   4
FAIRMONT       SUNNY     19  11  70 NW16      30.01S WCI   4
GLENCOE        SUNNY     21  12  69 NW13      29.97S WCI   8
FARIBAULT      SUNNY     18   7  62 W10G20    29.96R WCI   6
OWATONNA       SUNNY     16   5  62 NW15      29.95R WCI   1
WASECA         SUNNY     18   9  68 NW16      29.98R WCI   3
ALBERT LEA     SUNNY     14   7  73 W14G22    29.95R WCI  -1
$$
MNZ078>079-086>088-094>096-251600-
   Southeast Minnesota

CITY           SKY/WX    TMP DP  RH WIND       PRES   REMARKS
ROCHESTER      SUNNY     12   5  73 NW20      29.90R WCI  -6
RED WING       SUNNY     18   1  49 NW12G18   29.93R WCI   5
STANTON        SUNNY     17   5  58 NW14      29.94R WCI   3
WINONA           N/A     18   9  68 NW21      29.92R WCI   1
AUSTIN         SUNNY     12   7  79 NW16      29.94R WCI  -4
PRESTON        SUNNY     13   4  68 NW18      29.90R WCI  -5
$$
ABBREVIATIONS USED IN REMARKS
   TC - TEMPERATURES IN CELSIUS
  WCI - WIND CHILL INDEX
   HX - HEAT INDEX
  VSB - VISIBILITY
$$




USA.gov is the U.S. government's official web portal to all federal, state and local government web resources and services.